TimeCDT,TemperatureF,Dew PointF,Humidity,Sea Level PressureIn,VisibilityMPH,Wind Direction,Wind SpeedMPH,Gust SpeedMPH,PrecipitationIn,Events,Conditions,WindDirDegrees,DateUTC
12:53 AM,39.9,32.0,73,30.28,10.0,East,10.4,-,N/A,,Scattered Clouds,90,2013-10-29 05:53:00
1:53 AM,39.9,33.1,77,30.28,10.0,East,8.1,-,N/A,,Clear,100,2013-10-29 06:53:00
2:53 AM,39.9,33.1,77,30.26,10.0,East,10.4,-,N/A,,Clear,90,2013-10-29 07:53:00
3:53 AM,39.9,34.0,79,30.23,10.0,ESE,12.7,21.9,N/A,,Scattered Clouds,110,2013-10-29 08:53:00
4:53 AM,39.9,34.0,79,30.22,10.0,East,11.5,-,N/A,,Mostly Cloudy,90,2013-10-29 09:53:00
5:53 AM,39.9,34.0,79,30.23,10.0,East,8.1,-,N/A,,Overcast,80,2013-10-29 10:53:00
6:53 AM,39.0,33.1,79,30.23,10.0,East,9.2,-,N/A,,Overcast,100,2013-10-29 11:53:00
7:53 AM,39.0,34.0,82,30.21,10.0,East,9.2,-,N/A,,Overcast,100,2013-10-29 12:53:00
8:53 AM,39.9,34.0,79,30.22,10.0,East,10.4,-,N/A,,Overcast,90,2013-10-29 13:53:00
9:53 AM,41.0,35.1,79,30.21,10.0,ESE,10.4,-,N/A,,Overcast,110,2013-10-29 14:53:00
10:53 AM,46.9,37.0,68,30.19,10.0,ESE,12.7,19.6,N/A,,Scattered Clouds,120,2013-10-29 15:53:00
11:53 AM,48.0,37.9,68,30.17,10.0,ESE,10.4,-,N/A,,Scattered Clouds,110,2013-10-29 16:53:00
12:39 PM,50.0,39.0,66,30.14,10.0,East,11.5,-,N/A,,Mostly Cloudy,100,2013-10-29 17:39:00
12:53 PM,50.0,39.0,66,30.14,10.0,East,9.2,-,N/A,,Mostly Cloudy,100,2013-10-29 17:53:00
1:23 PM,51.1,39.9,66,30.12,9.0,ESE,11.5,-,N/A,,Overcast,110,2013-10-29 18:23:00
1:45 PM,51.1,41.0,68,30.11,10.0,ESE,6.9,-,N/A,,Overcast,110,2013-10-29 18:45:00
1:53 PM,52.0,39.9,63,30.11,10.0,East,9.2,-,N/A,,Overcast,100,2013-10-29 18:53:00
2:22 PM,52.0,41.0,66,30.09,10.0,SE,8.1,-,N/A,,Overcast,130,2013-10-29 19:22:00
2:53 PM,53.1,41.0,64,30.07,10.0,ESE,10.4,-,N/A,,Overcast,120,2013-10-29 19:53:00
3:53 PM,54.0,42.1,64,30.05,10.0,East,4.6,-,N/A,,Overcast,90,2013-10-29 20:53:00
4:38 PM,55.0,45.0,69,30.04,10.0,SE,8.1,-,N/A,,Overcast,130,2013-10-29 21:38:00
4:53 PM,55.0,44.1,67,30.04,10.0,ESE,8.1,-,N/A,,Overcast,120,2013-10-29 21:53:00
5:53 PM,55.0,45.0,69,30.03,9.0,ESE,9.2,-,N/A,,Overcast,110,2013-10-29 22:53:00
6:53 PM,54.0,46.0,75,30.04,10.0,East,5.8,-,N/A,,Overcast,100,2013-10-29 23:53:00
7:53 PM,53.1,45.0,74,30.04,9.0,ESE,6.9,-,N/A,,Overcast,110,2013-10-30 00:53:00
8:06 PM,53.1,45.0,74,30.03,9.0,ESE,6.9,-,N/A,,Overcast,110,2013-10-30 01:06:00
8:51 PM,51.8,44.6,76,30.03,9.0,ESE,5.8,-,N/A,,Overcast,110,2013-10-30 01:51:00
8:53 PM,53.1,45.0,74,30.03,9.0,ESE,5.8,-,N/A,,Overcast,110,2013-10-30 01:53:00
9:53 PM,53.1,45.0,74,30.04,10.0,SE,6.9,-,N/A,,Overcast,130,2013-10-30 02:53:00
10:53 PM,53.1,45.0,74,30.03,10.0,SE,11.5,-,N/A,,Overcast,140,2013-10-30 03:53:00
11:07 PM,53.1,45.0,74,30.03,10.0,SE,10.4,-,N/A,,Overcast,130,2013-10-30 04:07:00
11:25 PM,53.1,45.0,74,30.02,9.0,SE,11.5,-,N/A,,Overcast,140,2013-10-30 04:25:00
11:53 PM,52.0,46.0,80,30.02,8.0,SE,8.1,-,N/A,,Overcast,140,2013-10-30 04:53:00